STARLINK-30445, 57873

Orbit data source: Space-Track

STARLINK-30445, 57873 is a payload satellite owned by SpaceX/Seattle (US) in LEO that was launched on Sat, 16 Sep 2023 UTC via an FALCON 9 launch vehicle from the Air Force Eastern Test Range (AFETR). Payload-class satellites include a variety of spacecraft equipped with specific instruments for various scientific and technological missions. These include communications satellites like Starlink; space stations such as the ISS; scientific satellites like the Hubble; Earth observation satellites from companies like Planet Labs, Umbra, and HawkEye 360; GPS; miniature CubeSats for education and research; and military/defense satellites.

Loading next visibility...
Identifier
57873, 2023-144K
Orbit
LEO
Country
Flag of USUS
Related business
Manufacturer
SpaceX/Seattle
Mission
Operational Commercial Communications
Bus & Motor
STARLINK V2M, Unknown motor
Mass
730 kg wet, ~700 kg dry
Launch date (UTC)
2023-09-16 (3 years ago)
Launch vehicle
FALCON 9
Launch site
Air Force Eastern Test Range (AFETR)
Object type
Payload
Rocket body
Debris
Shape & HBR
Box + 2 Pan, 17.7 m
Radar Cross Section
33.884 m², Large (>1 m²)

Expand to show TLE details & history
Last TLE update: 2 days ago

TLE from 2 days ago
0 STARLINK-30445
1 57873U 23144K   26171.39357131  .00000613  00000-0  31799-4 0  9996
2 57873  43.0061  65.2726 0001091 285.3978  74.6753 15.27581768153301
Epoch: 2026-06-20T09:26Z
TLE epoch observation values (Epoch: 2026-06-20T09:26:44.561Z)
Latitude
-0.00002°
Longitude
14.97808°
Altitude
482.622 km
Speed
7.626 km/s
True Right ascension
04h 21m 05s
True Declination
0° 00' 00"
Sunlit
Object was in daylight at epoch
Visualization orbit readout
Latitude
Unknown
Longitude
Unknown
Altitude
Unknown
Speed
Unknown
Apparent Right ascension
Unknown
Apparent Declination
Unknown
Sunlit
N/A
Visualization observer readout
Local Sidereal Time
21:51:24
Azimuth
Unknown
Elevation
Unknown
Doppler factor
Unknown
Orbital elements
Apogee altitude
485.737 km
Perigee altitude
484.239 km
Semi-major axis
6,863.125 km
Eccentricity
0.00011
Inclination
43.0061°
RAAN
65.2726°
Arg. of periapsis
285.3978°
True anomaly
74.68736°
Mean anomaly
74.6753°
Eccentric anomaly
74.68133°
Mean motion
3.81734 °/min
Orbital period
94.31 mins
BSTAR
0.000031799
Loading maneuver chart data...
Computing Atmospheric mass density...
Loading historical data...
Loading historical data...
Loading historical data...
Loading historical data...
Loading historical data...
Loading historical data...
Loading historical data...

Documentation

Showing up to 5 results
|